#datetime,building,power
2022-07-12T00:00:00,sdl,11.69
2022-07-12T00:01:00,sdl,9.34
2022-07-12T00:02:00,sdl,8.75
2022-07-12T00:03:00,sdl,8.87
2022-07-12T00:04:00,sdl,8.58
2022-07-12T00:05:00,sdl,9.24
2022-07-12T00:06:00,sdl,9.20
2022-07-12T00:07:00,sdl,8.49
2022-07-12T00:08:00,sdl,8.80
2022-07-12T00:09:00,sdl,8.84
2022-07-12T00:10:00,sdl,8.87
2022-07-12T00:11:00,sdl,8.94
2022-07-12T00:12:00,sdl,9.06
2022-07-12T00:13:00,sdl,8.95
2022-07-12T00:14:00,sdl,8.99
2022-07-12T00:15:00,sdl,9.03
2022-07-12T00:16:00,sdl,9.03
2022-07-12T00:17:00,sdl,9.02
2022-07-12T00:18:00,sdl,8.98
2022-07-12T00:19:00,sdl,8.99
2022-07-12T00:20:00,sdl,9.04
2022-07-12T00:21:00,sdl,9.07
2022-07-12T00:22:00,sdl,9.05
2022-07-12T00:23:00,sdl,9.03
2022-07-12T00:24:00,sdl,9.11
2022-07-12T00:25:00,sdl,9.01
2022-07-12T00:26:00,sdl,9.11
2022-07-12T00:27:00,sdl,9.51
2022-07-12T00:28:00,sdl,9.24
2022-07-12T00:29:00,sdl,9.30
2022-07-12T00:30:00,sdl,9.31
2022-07-12T00:31:00,sdl,8.36
2022-07-12T00:32:00,sdl,4.45
2022-07-12T00:33:00,sdl,2.65
2022-07-12T00:34:00,sdl,2.60
2022-07-12T00:35:00,sdl,4.67
2022-07-12T00:36:00,sdl,4.68
2022-07-12T00:37:00,sdl,5.07
2022-07-12T00:38:00,sdl,5.03
2022-07-12T00:39:00,sdl,4.66
2022-07-12T00:40:00,sdl,4.67
2022-07-12T00:41:00,sdl,4.59
2022-07-12T00:42:00,sdl,4.60
2022-07-12T00:43:00,sdl,4.62
2022-07-12T00:44:00,sdl,4.71
2022-07-12T00:45:00,sdl,4.70
2022-07-12T00:46:00,sdl,4.76
2022-07-12T00:47:00,sdl,4.83
2022-07-12T00:48:00,sdl,4.94
2022-07-12T00:49:00,sdl,4.92
2022-07-12T00:50:00,sdl,2.72
2022-07-12T00:51:00,sdl,2.20
2022-07-12T00:52:00,sdl,2.15
2022-07-12T00:53:00,sdl,2.19
2022-07-12T00:54:00,sdl,2.18
2022-07-12T00:55:00,sdl,2.20
2022-07-12T00:56:00,sdl,2.51
2022-07-12T00:57:00,sdl,2.24
2022-07-12T00:58:00,sdl,2.16
2022-07-12T00:59:00,sdl,2.16
2022-07-12T01:00:00,sdl,2.16
2022-07-12T01:01:00,sdl,2.17
2022-07-12T01:02:00,sdl,2.23
2022-07-12T01:03:00,sdl,2.32
2022-07-12T01:04:00,sdl,5.18
2022-07-12T01:05:00,sdl,4.55
2022-07-12T01:06:00,sdl,4.73
2022-07-12T01:07:00,sdl,4.47
2022-07-12T01:08:00,sdl,4.77
2022-07-12T01:09:00,sdl,4.78
2022-07-12T01:10:00,sdl,4.78
2022-07-12T01:11:00,sdl,4.38
2022-07-12T01:12:00,sdl,4.42
2022-07-12T01:13:00,sdl,4.28
2022-07-12T01:14:00,sdl,4.25
2022-07-12T01:15:00,sdl,4.32
2022-07-12T01:16:00,sdl,4.43
2022-07-12T01:17:00,sdl,4.44
2022-07-12T01:18:00,sdl,4.50
2022-07-12T01:19:00,sdl,4.54
2022-07-12T01:20:00,sdl,4.53
2022-07-12T01:21:00,sdl,4.54
2022-07-12T01:22:00,sdl,2.27
2022-07-12T01:23:00,sdl,2.35
2022-07-12T01:24:00,sdl,2.48
2022-07-12T01:25:00,sdl,2.30
2022-07-12T01:26:00,sdl,2.68
2022-07-12T01:27:00,sdl,3.98
2022-07-12T01:28:00,sdl,2.66
2022-07-12T01:29:00,sdl,2.63
2022-07-12T01:30:00,sdl,3.26
2022-07-12T01:31:00,sdl,2.39
2022-07-12T01:32:00,sdl,2.44
2022-07-12T01:33:00,sdl,2.54
2022-07-12T01:34:00,sdl,2.51
2022-07-12T01:35:00,sdl,2.56
2022-07-12T01:36:00,sdl,2.59
2022-07-12T01:37:00,sdl,2.94
2022-07-12T01:38:00,sdl,2.94
2022-07-12T01:39:00,sdl,2.50
2022-07-12T01:40:00,sdl,2.50
2022-07-12T01:41:00,sdl,2.52
2022-07-12T01:42:00,sdl,2.42
2022-07-12T01:43:00,sdl,2.41
2022-07-12T01:44:00,sdl,2.37
2022-07-12T01:45:00,sdl,2.24
2022-07-12T01:46:00,sdl,2.29
2022-07-12T01:47:00,sdl,2.24
2022-07-12T01:48:00,sdl,2.28
2022-07-12T01:49:00,sdl,2.30
2022-07-12T01:50:00,sdl,3.05
2022-07-12T01:51:00,sdl,2.31
2022-07-12T01:52:00,sdl,2.79
2022-07-12T01:53:00,sdl,2.34
2022-07-12T01:54:00,sdl,2.28
2022-07-12T01:55:00,sdl,2.37
2022-07-12T01:56:00,sdl,2.34
2022-07-12T01:57:00,sdl,5.10
2022-07-12T01:58:00,sdl,4.38
2022-07-12T01:59:00,sdl,4.41
2022-07-12T02:00:00,sdl,4.50
2022-07-12T02:01:00,sdl,5.95
2022-07-12T02:02:00,sdl,5.98
2022-07-12T02:03:00,sdl,6.03
2022-07-12T02:04:00,sdl,6.09
2022-07-12T02:05:00,sdl,6.06
2022-07-12T02:06:00,sdl,11.07
2022-07-12T02:07:00,sdl,10.82
2022-07-12T02:08:00,sdl,11.04
2022-07-12T02:09:00,sdl,11.35
2022-07-12T02:10:00,sdl,11.00
2022-07-12T02:11:00,sdl,10.78
2022-07-12T02:12:00,sdl,10.71
2022-07-12T02:13:00,sdl,8.63
2022-07-12T02:14:00,sdl,8.60
2022-07-12T02:15:00,sdl,8.70
2022-07-12T02:16:00,sdl,8.71
2022-07-12T02:17:00,sdl,8.66
2022-07-12T02:18:00,sdl,8.65
2022-07-12T02:19:00,sdl,8.69
2022-07-12T02:20:00,sdl,9.20
2022-07-12T02:21:00,sdl,8.68
2022-07-12T02:22:00,sdl,8.72
2022-07-12T02:23:00,sdl,9.39
2022-07-12T02:24:00,sdl,8.57
2022-07-12T02:25:00,sdl,8.68
2022-07-12T02:26:00,sdl,8.70
2022-07-12T02:27:00,sdl,8.67
2022-07-12T02:28:00,sdl,8.66
2022-07-12T02:29:00,sdl,10.83
2022-07-12T02:30:00,sdl,10.83
2022-07-12T02:31:00,sdl,10.74
2022-07-12T02:32:00,sdl,10.65
2022-07-12T02:33:00,sdl,10.66
2022-07-12T02:34:00,sdl,10.77
2022-07-12T02:35:00,sdl,10.73
2022-07-12T02:36:00,sdl,10.71
2022-07-12T02:37:00,sdl,11.11
2022-07-12T02:38:00,sdl,11.06
2022-07-12T02:39:00,sdl,10.61
2022-07-12T02:40:00,sdl,10.66
2022-07-12T02:41:00,sdl,10.84
2022-07-12T02:42:00,sdl,10.82
2022-07-12T02:43:00,sdl,11.20
2022-07-12T02:44:00,sdl,8.63
2022-07-12T02:45:00,sdl,8.62
2022-07-12T02:46:00,sdl,9.03
2022-07-12T02:47:00,sdl,9.00
2022-07-12T02:48:00,sdl,9.24
2022-07-12T02:49:00,sdl,8.79
2022-07-12T02:50:00,sdl,9.21
2022-07-12T02:51:00,sdl,9.27
2022-07-12T02:52:00,sdl,8.96
2022-07-12T02:53:00,sdl,8.99
2022-07-12T02:54:00,sdl,9.12
2022-07-12T02:55:00,sdl,8.91
2022-07-12T02:56:00,sdl,8.90
2022-07-12T02:57:00,sdl,8.88
2022-07-12T02:58:00,sdl,8.96
2022-07-12T02:59:00,sdl,8.96
2022-07-12T03:00:00,sdl,9.03
2022-07-12T03:01:00,sdl,8.97
2022-07-12T03:02:00,sdl,9.05
2022-07-12T03:03:00,sdl,9.89
2022-07-12T03:04:00,sdl,8.94
2022-07-12T03:05:00,sdl,9.09
2022-07-12T03:06:00,sdl,8.87
2022-07-12T03:07:00,sdl,8.89
2022-07-12T03:08:00,sdl,8.59
2022-07-12T03:09:00,sdl,8.54
2022-07-12T03:10:00,sdl,8.54
2022-07-12T03:11:00,sdl,8.39
2022-07-12T03:12:00,sdl,8.40
2022-07-12T03:13:00,sdl,8.38
2022-07-12T03:14:00,sdl,9.21
2022-07-12T03:15:00,sdl,8.51
2022-07-12T03:16:00,sdl,10.74
2022-07-12T03:17:00,sdl,10.69
2022-07-12T03:18:00,sdl,10.64
2022-07-12T03:19:00,sdl,10.69
2022-07-12T03:20:00,sdl,10.75
2022-07-12T03:21:00,sdl,11.22
2022-07-12T03:22:00,sdl,11.07
2022-07-12T03:23:00,sdl,11.05
2022-07-12T03:24:00,sdl,11.10
2022-07-12T03:25:00,sdl,11.04
2022-07-12T03:26:00,sdl,11.03
2022-07-12T03:27:00,sdl,11.01
2022-07-12T03:28:00,sdl,11.02
2022-07-12T03:29:00,sdl,11.11
2022-07-12T03:30:00,sdl,11.11
2022-07-12T03:31:00,sdl,11.46
2022-07-12T03:32:00,sdl,11.18
2022-07-12T03:33:00,sdl,9.45
2022-07-12T03:34:00,sdl,9.39
2022-07-12T03:35:00,sdl,9.10
2022-07-12T03:36:00,sdl,9.19
2022-07-12T03:37:00,sdl,9.72
2022-07-12T03:38:00,sdl,9.73
2022-07-12T03:39:00,sdl,9.06
2022-07-12T03:40:00,sdl,9.97
2022-07-12T03:41:00,sdl,8.96
2022-07-12T03:42:00,sdl,8.98
2022-07-12T03:43:00,sdl,8.99
2022-07-12T03:44:00,sdl,8.98
2022-07-12T03:45:00,sdl,9.33
2022-07-12T03:46:00,sdl,9.55
2022-07-12T03:47:00,sdl,9.46
2022-07-12T03:48:00,sdl,11.29
2022-07-12T03:49:00,sdl,11.52
2022-07-12T03:50:00,sdl,11.12
2022-07-12T03:51:00,sdl,11.19
2022-07-12T03:52:00,sdl,11.21
2022-07-12T03:53:00,sdl,11.11
2022-07-12T03:54:00,sdl,11.15
2022-07-12T03:55:00,sdl,11.14
2022-07-12T03:56:00,sdl,11.04
2022-07-12T03:57:00,sdl,10.59
2022-07-12T03:58:00,sdl,10.68
2022-07-12T03:59:00,sdl,10.77
2022-07-12T04:00:00,sdl,11.16
2022-07-12T04:01:00,sdl,11.20
2022-07-12T04:02:00,sdl,10.84
2022-07-12T04:03:00,sdl,8.71
2022-07-12T04:04:00,sdl,8.66
2022-07-12T04:05:00,sdl,8.61
2022-07-12T04:06:00,sdl,8.84
2022-07-12T04:07:00,sdl,8.74
2022-07-12T04:08:00,sdl,8.79
2022-07-12T04:09:00,sdl,8.82
2022-07-12T04:10:00,sdl,8.72
2022-07-12T04:11:00,sdl,8.68
2022-07-12T04:12:00,sdl,8.70
2022-07-12T04:13:00,sdl,8.68
2022-07-12T04:14:00,sdl,8.74
2022-07-12T04:15:00,sdl,8.67
2022-07-12T04:16:00,sdl,8.77
2022-07-12T04:17:00,sdl,8.72
2022-07-12T04:18:00,sdl,8.63
2022-07-12T04:19:00,sdl,8.68
2022-07-12T04:20:00,sdl,8.74
2022-07-12T04:21:00,sdl,8.68
2022-07-12T04:22:00,sdl,8.70
2022-07-12T04:23:00,sdl,8.66
2022-07-12T04:24:00,sdl,8.71
2022-07-12T04:25:00,sdl,8.62
2022-07-12T04:26:00,sdl,8.51
2022-07-12T04:27:00,sdl,8.54
2022-07-12T04:28:00,sdl,8.84
2022-07-12T04:29:00,sdl,9.16
2022-07-12T04:30:00,sdl,9.20
2022-07-12T04:31:00,sdl,8.76
2022-07-12T04:32:00,sdl,8.78
2022-07-12T04:33:00,sdl,10.93
2022-07-12T04:34:00,sdl,10.97
2022-07-12T04:35:00,sdl,11.66
2022-07-12T04:36:00,sdl,10.91
2022-07-12T04:37:00,sdl,11.58
2022-07-12T04:38:00,sdl,11.54
2022-07-12T04:39:00,sdl,11.66
2022-07-12T04:40:00,sdl,11.61
2022-07-12T04:41:00,sdl,11.69
2022-07-12T04:42:00,sdl,11.63
2022-07-12T04:43:00,sdl,12.18
2022-07-12T04:44:00,sdl,11.92
2022-07-12T04:45:00,sdl,11.51
2022-07-12T04:46:00,sdl,11.61
2022-07-12T04:47:00,sdl,11.56
2022-07-12T04:48:00,sdl,14.91
2022-07-12T04:49:00,sdl,11.58
2022-07-12T04:50:00,sdl,11.58
2022-07-12T04:51:00,sdl,9.32
2022-07-12T04:52:00,sdl,9.48
2022-07-12T04:53:00,sdl,9.51
2022-07-12T04:54:00,sdl,9.48
2022-07-12T04:55:00,sdl,9.47
2022-07-12T04:56:00,sdl,9.45
2022-07-12T04:57:00,sdl,9.85
2022-07-12T04:58:00,sdl,9.91
2022-07-12T04:59:00,sdl,9.42
2022-07-12T05:00:00,sdl,9.50
2022-07-12T05:01:00,sdl,10.17
2022-07-12T05:02:00,sdl,9.54
2022-07-12T05:03:00,sdl,9.51
2022-07-12T05:04:00,sdl,9.51
2022-07-12T05:05:00,sdl,9.53
2022-07-12T05:06:00,sdl,11.66
2022-07-12T05:07:00,sdl,11.19
2022-07-12T05:08:00,sdl,11.12
2022-07-12T05:09:00,sdl,11.21
2022-07-12T05:10:00,sdl,11.17
2022-07-12T05:11:00,sdl,11.26
2022-07-12T05:12:00,sdl,11.21
2022-07-12T05:13:00,sdl,11.19
2022-07-12T05:14:00,sdl,14.47
2022-07-12T05:15:00,sdl,11.50
2022-07-12T05:16:00,sdl,11.07
2022-07-12T05:17:00,sdl,11.13
2022-07-12T05:18:00,sdl,11.14
2022-07-12T05:19:00,sdl,8.99
2022-07-12T05:20:00,sdl,9.47
2022-07-12T05:21:00,sdl,9.20
2022-07-12T05:22:00,sdl,9.08
2022-07-12T05:23:00,sdl,9.03
2022-07-12T05:24:00,sdl,9.04
2022-07-12T05:25:00,sdl,9.45
2022-07-12T05:26:00,sdl,9.53
2022-07-12T05:27:00,sdl,9.10
2022-07-12T05:28:00,sdl,9.11
2022-07-12T05:29:00,sdl,9.10
2022-07-12T05:30:00,sdl,9.10
2022-07-12T05:31:00,sdl,8.90
2022-07-12T05:32:00,sdl,8.93
2022-07-12T05:33:00,sdl,8.86
2022-07-12T05:34:00,sdl,9.59
2022-07-12T05:35:00,sdl,8.80
2022-07-12T05:36:00,sdl,9.47
2022-07-12T05:37:00,sdl,9.74
2022-07-12T05:38:00,sdl,8.87
2022-07-12T05:39:00,sdl,8.87
2022-07-12T05:40:00,sdl,8.87
2022-07-12T05:41:00,sdl,9.24
2022-07-12T05:42:00,sdl,9.11
2022-07-12T05:43:00,sdl,9.51
2022-07-12T05:44:00,sdl,9.17
2022-07-12T05:45:00,sdl,9.11
2022-07-12T05:46:00,sdl,9.19
2022-07-12T05:47:00,sdl,9.06
2022-07-12T05:48:00,sdl,9.08
2022-07-12T05:49:00,sdl,11.17
2022-07-12T05:50:00,sdl,11.21
2022-07-12T05:51:00,sdl,11.24
2022-07-12T05:52:00,sdl,11.19
2022-07-12T05:53:00,sdl,11.30
2022-07-12T05:54:00,sdl,11.29
2022-07-12T05:55:00,sdl,11.61
2022-07-12T05:56:00,sdl,11.73
2022-07-12T05:57:00,sdl,11.29
2022-07-12T05:58:00,sdl,11.21
2022-07-12T05:59:00,sdl,11.68
2022-07-12T06:00:00,sdl,11.31
2022-07-12T06:01:00,sdl,11.44
2022-07-12T06:02:00,sdl,11.49
2022-07-12T06:03:00,sdl,11.46
2022-07-12T06:04:00,sdl,11.42
2022-07-12T06:05:00,sdl,11.45
2022-07-12T06:06:00,sdl,9.15
2022-07-12T06:07:00,sdl,9.21
2022-07-12T06:08:00,sdl,9.11
2022-07-12T06:09:00,sdl,9.15
2022-07-12T06:10:00,sdl,9.18
2022-07-12T06:11:00,sdl,9.17
2022-07-12T06:12:00,sdl,9.09
2022-07-12T06:13:00,sdl,9.07
2022-07-12T06:14:00,sdl,9.07
2022-07-12T06:15:00,sdl,9.53
2022-07-12T06:16:00,sdl,9.10
2022-07-12T06:17:00,sdl,8.71
2022-07-12T06:18:00,sdl,8.66
2022-07-12T06:19:00,sdl,8.72
2022-07-12T06:20:00,sdl,8.67
2022-07-12T06:21:00,sdl,8.88
2022-07-12T06:22:00,sdl,10.97
2022-07-12T06:23:00,sdl,11.02
2022-07-12T06:24:00,sdl,11.55
2022-07-12T06:25:00,sdl,11.17
2022-07-12T06:26:00,sdl,11.42
2022-07-12T06:27:00,sdl,11.39
2022-07-12T06:28:00,sdl,11.60
2022-07-12T06:29:00,sdl,11.02
2022-07-12T06:30:00,sdl,10.98
2022-07-12T06:31:00,sdl,11.31
2022-07-12T06:32:00,sdl,11.06
2022-07-12T06:33:00,sdl,11.05
2022-07-12T06:34:00,sdl,11.08
2022-07-12T06:35:00,sdl,9.02
2022-07-12T06:36:00,sdl,8.94
2022-07-12T06:37:00,sdl,8.96
2022-07-12T06:38:00,sdl,9.01
2022-07-12T06:39:00,sdl,12.41
2022-07-12T06:40:00,sdl,8.92
2022-07-12T06:41:00,sdl,8.88
2022-07-12T06:42:00,sdl,8.90
2022-07-12T06:43:00,sdl,8.76
2022-07-12T06:44:00,sdl,8.78
2022-07-12T06:45:00,sdl,8.80
2022-07-12T06:46:00,sdl,8.75
2022-07-12T06:47:00,sdl,8.76
2022-07-12T06:48:00,sdl,8.78
2022-07-12T06:49:00,sdl,8.85
2022-07-12T06:50:00,sdl,8.86
2022-07-12T06:51:00,sdl,8.83
2022-07-12T06:52:00,sdl,9.11
2022-07-12T06:53:00,sdl,9.18
2022-07-12T06:54:00,sdl,9.55
2022-07-12T06:55:00,sdl,9.44
2022-07-12T06:56:00,sdl,9.08
2022-07-12T06:57:00,sdl,9.12
2022-07-12T06:58:00,sdl,9.03
2022-07-12T06:59:00,sdl,9.06
2022-07-12T07:00:00,sdl,9.08
2022-07-12T07:01:00,sdl,9.13
2022-07-12T07:02:00,sdl,11.79
2022-07-12T07:03:00,sdl,11.75
2022-07-12T07:04:00,sdl,13.84
2022-07-12T07:05:00,sdl,13.84
2022-07-12T07:06:00,sdl,13.94
2022-07-12T07:07:00,sdl,15.53
2022-07-12T07:08:00,sdl,14.50
2022-07-12T07:09:00,sdl,17.93
2022-07-12T07:10:00,sdl,18.94
2022-07-12T07:11:00,sdl,18.34
2022-07-12T07:12:00,sdl,18.38
2022-07-12T07:13:00,sdl,18.44
2022-07-12T07:14:00,sdl,18.60
2022-07-12T07:15:00,sdl,18.69
2022-07-12T07:16:00,sdl,18.75
2022-07-12T07:17:00,sdl,18.79
2022-07-12T07:18:00,sdl,18.80
2022-07-12T07:19:00,sdl,18.84
2022-07-12T07:20:00,sdl,19.22
2022-07-12T07:21:00,sdl,17.18
2022-07-12T07:22:00,sdl,16.97
2022-07-12T07:23:00,sdl,16.94
2022-07-12T07:24:00,sdl,17.04
2022-07-12T07:25:00,sdl,17.11
2022-07-12T07:26:00,sdl,17.28
2022-07-12T07:27:00,sdl,17.16
2022-07-12T07:28:00,sdl,17.05
2022-07-12T07:29:00,sdl,17.10
2022-07-12T07:30:00,sdl,17.75
2022-07-12T07:31:00,sdl,16.95
2022-07-12T07:32:00,sdl,16.81
2022-07-12T07:33:00,sdl,16.82
2022-07-12T07:34:00,sdl,16.82
2022-07-12T07:35:00,sdl,16.70
2022-07-12T07:36:00,sdl,16.43
2022-07-12T07:37:00,sdl,18.50
2022-07-12T07:38:00,sdl,18.19
2022-07-12T07:39:00,sdl,18.18
2022-07-12T07:40:00,sdl,18.13
2022-07-12T07:41:00,sdl,18.01
2022-07-12T07:42:00,sdl,18.00
2022-07-12T07:43:00,sdl,18.99
2022-07-12T07:44:00,sdl,19.06
2022-07-12T07:45:00,sdl,18.32
2022-07-12T07:46:00,sdl,18.68
2022-07-12T07:47:00,sdl,18.63
2022-07-12T07:48:00,sdl,18.32
2022-07-12T07:49:00,sdl,17.42
2022-07-12T07:50:00,sdl,14.49
2022-07-12T07:51:00,sdl,14.97
2022-07-12T07:52:00,sdl,16.71
2022-07-12T07:53:00,sdl,15.66
2022-07-12T07:54:00,sdl,16.40
2022-07-12T07:55:00,sdl,15.84
2022-07-12T07:56:00,sdl,15.80
2022-07-12T07:57:00,sdl,16.08
2022-07-12T07:58:00,sdl,16.12
2022-07-12T07:59:00,sdl,16.07
2022-07-12T08:00:00,sdl,16.30
2022-07-12T08:01:00,sdl,16.26
2022-07-12T08:02:00,sdl,16.32
2022-07-12T08:03:00,sdl,16.20
2022-07-12T08:04:00,sdl,16.16
2022-07-12T08:05:00,sdl,16.26
2022-07-12T08:06:00,sdl,16.20
2022-07-12T08:07:00,sdl,16.80
2022-07-12T08:08:00,sdl,17.44
2022-07-12T08:09:00,sdl,17.43
2022-07-12T08:10:00,sdl,16.82
2022-07-12T08:11:00,sdl,16.87
2022-07-12T08:12:00,sdl,16.96
2022-07-12T08:13:00,sdl,16.91
2022-07-12T08:14:00,sdl,17.01
2022-07-12T08:15:00,sdl,17.42
2022-07-12T08:16:00,sdl,19.55
2022-07-12T08:17:00,sdl,19.42
2022-07-12T08:18:00,sdl,19.19
2022-07-12T08:19:00,sdl,19.12
2022-07-12T08:20:00,sdl,19.15
2022-07-12T08:21:00,sdl,19.01
2022-07-12T08:22:00,sdl,19.14
2022-07-12T08:23:00,sdl,19.41
2022-07-12T08:24:00,sdl,19.34
2022-07-12T08:25:00,sdl,19.30
2022-07-12T08:26:00,sdl,19.35
2022-07-12T08:27:00,sdl,19.98
2022-07-12T08:28:00,sdl,19.81
2022-07-12T08:29:00,sdl,19.21
2022-07-12T08:30:00,sdl,20.25
2022-07-12T08:31:00,sdl,20.95
2022-07-12T08:32:00,sdl,20.39
2022-07-12T08:33:00,sdl,19.63
2022-07-12T08:34:00,sdl,19.85
2022-07-12T08:35:00,sdl,19.55
2022-07-12T08:36:00,sdl,17.86
2022-07-12T08:37:00,sdl,17.00
2022-07-12T08:38:00,sdl,16.94
2022-07-12T08:39:00,sdl,17.91
2022-07-12T08:40:00,sdl,16.98
2022-07-12T08:41:00,sdl,18.14
2022-07-12T08:42:00,sdl,16.98
2022-07-12T08:43:00,sdl,17.37
2022-07-12T08:44:00,sdl,17.38
2022-07-12T08:45:00,sdl,16.74
2022-07-12T08:46:00,sdl,16.70
2022-07-12T08:47:00,sdl,16.84
2022-07-12T08:48:00,sdl,16.79
2022-07-12T08:49:00,sdl,16.87
2022-07-12T08:50:00,sdl,16.82
2022-07-12T08:51:00,sdl,17.34
2022-07-12T08:52:00,sdl,17.59
2022-07-12T08:53:00,sdl,16.98
2022-07-12T08:54:00,sdl,17.55
2022-07-12T08:55:00,sdl,17.23
2022-07-12T08:56:00,sdl,17.70
2022-07-12T08:57:00,sdl,18.01
2022-07-12T08:58:00,sdl,18.03
2022-07-12T08:59:00,sdl,18.65
2022-07-12T09:00:00,sdl,18.03
2022-07-12T09:01:00,sdl,18.03
2022-07-12T09:02:00,sdl,17.99
2022-07-12T09:03:00,sdl,19.87
2022-07-12T09:04:00,sdl,21.73
2022-07-12T09:05:00,sdl,21.43
2022-07-12T09:06:00,sdl,22.41
2022-07-12T09:07:00,sdl,21.76
2022-07-12T09:08:00,sdl,21.80
2022-07-12T09:09:00,sdl,21.26
2022-07-12T09:10:00,sdl,21.41
2022-07-12T09:11:00,sdl,21.43
2022-07-12T09:12:00,sdl,25.96
2022-07-12T09:13:00,sdl,22.62
2022-07-12T09:14:00,sdl,22.68
2022-07-12T09:15:00,sdl,22.62
2022-07-12T09:16:00,sdl,19.08
2022-07-12T09:17:00,sdl,19.93
2022-07-12T09:18:00,sdl,19.14
2022-07-12T09:19:00,sdl,19.13
2022-07-12T09:20:00,sdl,19.06
2022-07-12T09:21:00,sdl,19.15
2022-07-12T09:22:00,sdl,19.90
2022-07-12T09:23:00,sdl,19.44
2022-07-12T09:24:00,sdl,19.36
2022-07-12T09:25:00,sdl,19.22
2022-07-12T09:26:00,sdl,19.73
2022-07-12T09:27:00,sdl,19.85
2022-07-12T09:28:00,sdl,19.03
2022-07-12T09:29:00,sdl,18.73
2022-07-12T09:30:00,sdl,18.65
2022-07-12T09:31:00,sdl,20.63
2022-07-12T09:32:00,sdl,20.97
2022-07-12T09:33:00,sdl,21.07
2022-07-12T09:34:00,sdl,20.71
2022-07-12T09:35:00,sdl,20.67
2022-07-12T09:36:00,sdl,20.48
2022-07-12T09:37:00,sdl,23.69
2022-07-12T09:38:00,sdl,20.52
2022-07-12T09:39:00,sdl,20.57
2022-07-12T09:40:00,sdl,21.23
2022-07-12T09:41:00,sdl,20.48
2022-07-12T09:42:00,sdl,20.79
2022-07-12T09:43:00,sdl,20.25
2022-07-12T09:44:00,sdl,20.34
2022-07-12T09:45:00,sdl,20.47
2022-07-12T09:46:00,sdl,20.32
2022-07-12T09:47:00,sdl,20.89
2022-07-12T09:48:00,sdl,20.37
2022-07-12T09:49:00,sdl,18.23
2022-07-12T09:50:00,sdl,19.56
2022-07-12T09:51:00,sdl,20.47
2022-07-12T09:52:00,sdl,18.61
2022-07-12T09:53:00,sdl,18.23
2022-07-12T09:54:00,sdl,18.11
2022-07-12T09:55:00,sdl,18.63
2022-07-12T09:56:00,sdl,18.68
2022-07-12T09:57:00,sdl,18.98
2022-07-12T09:58:00,sdl,19.38
2022-07-12T09:59:00,sdl,19.64
2022-07-12T10:00:00,sdl,18.96
2022-07-12T10:01:00,sdl,18.87
2022-07-12T10:02:00,sdl,18.54
2022-07-12T10:03:00,sdl,17.51
2022-07-12T10:04:00,sdl,23.39
2022-07-12T10:05:00,sdl,18.41
2022-07-12T10:06:00,sdl,19.18
2022-07-12T10:07:00,sdl,18.93
2022-07-12T10:08:00,sdl,18.61
2022-07-12T10:09:00,sdl,19.07
2022-07-12T10:10:00,sdl,19.07
2022-07-12T10:11:00,sdl,18.98
2022-07-12T10:12:00,sdl,21.17
2022-07-12T10:13:00,sdl,21.20
2022-07-12T10:14:00,sdl,21.45
2022-07-12T10:15:00,sdl,21.22
2022-07-12T10:16:00,sdl,21.24
2022-07-12T10:17:00,sdl,21.91
2022-07-12T10:18:00,sdl,21.35
2022-07-12T10:19:00,sdl,20.92
2022-07-12T10:20:00,sdl,20.99
2022-07-12T10:21:00,sdl,21.69
2022-07-12T10:22:00,sdl,21.07
2022-07-12T10:23:00,sdl,21.12
2022-07-12T10:24:00,sdl,21.10
2022-07-12T10:25:00,sdl,21.26
2022-07-12T10:26:00,sdl,21.36
2022-07-12T10:27:00,sdl,21.81
2022-07-12T10:28:00,sdl,21.75
2022-07-12T10:29:00,sdl,21.77
2022-07-12T10:30:00,sdl,21.89
2022-07-12T10:31:00,sdl,21.56
2022-07-12T10:32:00,sdl,21.45
2022-07-12T10:33:00,sdl,21.56
2022-07-12T10:34:00,sdl,21.45
2022-07-12T10:35:00,sdl,19.20
2022-07-12T10:36:00,sdl,19.27
2022-07-12T10:37:00,sdl,19.51
2022-07-12T10:38:00,sdl,19.82
2022-07-12T10:39:00,sdl,19.26
2022-07-12T10:40:00,sdl,19.24
2022-07-12T10:41:00,sdl,19.21
2022-07-12T10:42:00,sdl,19.30
2022-07-12T10:43:00,sdl,19.39
2022-07-12T10:44:00,sdl,18.99
2022-07-12T10:45:00,sdl,18.89
2022-07-12T10:46:00,sdl,23.32
2022-07-12T10:47:00,sdl,18.84
2022-07-12T10:48:00,sdl,18.69
2022-07-12T10:49:00,sdl,18.57
2022-07-12T10:50:00,sdl,18.97
2022-07-12T10:51:00,sdl,19.02
2022-07-12T10:52:00,sdl,19.42
2022-07-12T10:53:00,sdl,20.15
2022-07-12T10:54:00,sdl,21.33
2022-07-12T10:55:00,sdl,20.28
2022-07-12T10:56:00,sdl,20.57
2022-07-12T10:57:00,sdl,20.54
2022-07-12T10:58:00,sdl,20.72
2022-07-12T10:59:00,sdl,20.92
2022-07-12T11:00:00,sdl,20.55
2022-07-12T11:01:00,sdl,20.71
2022-07-12T11:02:00,sdl,20.45
2022-07-12T11:03:00,sdl,20.20
2022-07-12T11:04:00,sdl,20.77
2022-07-12T11:05:00,sdl,18.72
2022-07-12T11:06:00,sdl,18.64
2022-07-12T11:07:00,sdl,18.67
2022-07-12T11:08:00,sdl,18.70
2022-07-12T11:09:00,sdl,19.91
2022-07-12T11:10:00,sdl,19.23
2022-07-12T11:11:00,sdl,19.32
2022-07-12T11:12:00,sdl,19.03
2022-07-12T11:13:00,sdl,18.98
2022-07-12T11:14:00,sdl,19.13
2022-07-12T11:15:00,sdl,19.04
2022-07-12T11:16:00,sdl,19.04
2022-07-12T11:17:00,sdl,19.99
2022-07-12T11:18:00,sdl,19.74
2022-07-12T11:19:00,sdl,21.81
2022-07-12T11:20:00,sdl,21.57
2022-07-12T11:21:00,sdl,21.65
2022-07-12T11:22:00,sdl,21.41
2022-07-12T11:23:00,sdl,21.11
2022-07-12T11:24:00,sdl,21.70
2022-07-12T11:25:00,sdl,21.20
2022-07-12T11:26:00,sdl,21.07
2022-07-12T11:27:00,sdl,21.18
2022-07-12T11:28:00,sdl,21.13
2022-07-12T11:29:00,sdl,21.15
2022-07-12T11:30:00,sdl,21.13
2022-07-12T11:31:00,sdl,21.25
2022-07-12T11:32:00,sdl,21.13
2022-07-12T11:33:00,sdl,21.96
2022-07-12T11:34:00,sdl,20.78
2022-07-12T11:35:00,sdl,21.05
2022-07-12T11:36:00,sdl,21.29
2022-07-12T11:37:00,sdl,21.26
2022-07-12T11:38:00,sdl,21.47
2022-07-12T11:39:00,sdl,21.43
2022-07-12T11:40:00,sdl,21.39
2022-07-12T11:41:00,sdl,21.50
2022-07-12T11:42:00,sdl,21.44
2022-07-12T11:43:00,sdl,21.58
2022-07-12T11:44:00,sdl,21.84
2022-07-12T11:45:00,sdl,19.56
2022-07-12T11:46:00,sdl,19.52
2022-07-12T11:47:00,sdl,19.70
2022-07-12T11:48:00,sdl,20.17
2022-07-12T11:49:00,sdl,21.08
2022-07-12T11:50:00,sdl,20.40
2022-07-12T11:51:00,sdl,19.56
2022-07-12T11:52:00,sdl,19.65
2022-07-12T11:53:00,sdl,20.71
2022-07-12T11:54:00,sdl,20.30
2022-07-12T11:55:00,sdl,20.25
2022-07-12T11:56:00,sdl,20.26
2022-07-12T11:57:00,sdl,20.21
2022-07-12T11:58:00,sdl,20.12
2022-07-12T11:59:00,sdl,20.05
2022-07-12T12:00:00,sdl,19.04
2022-07-12T12:01:00,sdl,18.75
2022-07-12T12:02:00,sdl,18.57
2022-07-12T12:03:00,sdl,19.55
2022-07-12T12:04:00,sdl,19.48
2022-07-12T12:05:00,sdl,20.27
2022-07-12T12:06:00,sdl,20.06
2022-07-12T12:07:00,sdl,20.25
2022-07-12T12:08:00,sdl,20.23
2022-07-12T12:09:00,sdl,20.89
2022-07-12T12:10:00,sdl,21.14
2022-07-12T12:11:00,sdl,20.24
2022-07-12T12:12:00,sdl,20.26
2022-07-12T12:13:00,sdl,20.32
2022-07-12T12:14:00,sdl,18.39
2022-07-12T12:15:00,sdl,19.00
2022-07-12T12:16:00,sdl,18.48
2022-07-12T12:17:00,sdl,18.19
2022-07-12T12:18:00,sdl,17.56
2022-07-12T12:19:00,sdl,17.53
2022-07-12T12:20:00,sdl,17.51
2022-07-12T12:21:00,sdl,17.14
2022-07-12T12:22:00,sdl,17.12
2022-07-12T12:23:00,sdl,17.07
2022-07-12T12:24:00,sdl,17.22
2022-07-12T12:25:00,sdl,17.16
2022-07-12T12:26:00,sdl,17.25
2022-07-12T12:27:00,sdl,17.27
2022-07-12T12:28:00,sdl,19.55
2022-07-12T12:29:00,sdl,19.55
2022-07-12T12:30:00,sdl,19.54
2022-07-12T12:31:00,sdl,19.43
2022-07-12T12:32:00,sdl,20.21
2022-07-12T12:33:00,sdl,19.57
2022-07-12T12:34:00,sdl,19.50
2022-07-12T12:35:00,sdl,19.76
2022-07-12T12:36:00,sdl,19.74
2022-07-12T12:37:00,sdl,19.28
2022-07-12T12:38:00,sdl,21.30
2022-07-12T12:39:00,sdl,21.17
2022-07-12T12:40:00,sdl,20.82
2022-07-12T12:41:00,sdl,20.16
2022-07-12T12:42:00,sdl,21.37
2022-07-12T12:43:00,sdl,21.15
2022-07-12T12:44:00,sdl,21.13
2022-07-12T12:45:00,sdl,20.33
2022-07-12T12:46:00,sdl,20.42
2022-07-12T12:47:00,sdl,19.92
2022-07-12T12:48:00,sdl,19.90
2022-07-12T12:49:00,sdl,19.87
2022-07-12T12:50:00,sdl,19.87
2022-07-12T12:51:00,sdl,19.96
2022-07-12T12:52:00,sdl,20.15
2022-07-12T12:53:00,sdl,20.15
2022-07-12T12:54:00,sdl,20.21
2022-07-12T12:55:00,sdl,21.26
2022-07-12T12:56:00,sdl,20.16
2022-07-12T12:57:00,sdl,17.92
2022-07-12T12:58:00,sdl,18.02
2022-07-12T12:59:00,sdl,18.05
2022-07-12T13:00:00,sdl,18.26
2022-07-12T13:01:00,sdl,18.33
2022-07-12T13:02:00,sdl,18.34
2022-07-12T13:03:00,sdl,18.18
2022-07-12T13:04:00,sdl,18.18
2022-07-12T13:05:00,sdl,18.03
2022-07-12T13:06:00,sdl,18.03
2022-07-12T13:07:00,sdl,18.22
2022-07-12T13:08:00,sdl,18.66
2022-07-12T13:09:00,sdl,18.19
2022-07-12T13:10:00,sdl,18.21
2022-07-12T13:11:00,sdl,20.27
2022-07-12T13:12:00,sdl,18.02
2022-07-12T13:13:00,sdl,18.08
2022-07-12T13:14:00,sdl,18.00
2022-07-12T13:15:00,sdl,18.08
2022-07-12T13:16:00,sdl,18.65
2022-07-12T13:17:00,sdl,18.58
2022-07-12T13:18:00,sdl,18.13
2022-07-12T13:19:00,sdl,18.14
2022-07-12T13:20:00,sdl,18.14
2022-07-12T13:21:00,sdl,18.24
2022-07-12T13:22:00,sdl,18.11
2022-07-12T13:23:00,sdl,18.11
2022-07-12T13:24:00,sdl,17.93
2022-07-12T13:25:00,sdl,18.00
2022-07-12T13:26:00,sdl,18.20
2022-07-12T13:27:00,sdl,17.94
2022-07-12T13:28:00,sdl,17.83